| time (UTC) | temp F | wind direction | speed MPH | gust MPH | rain 1hr in | rain 24hr in | rain mn in | humidity % | barometer mb |
| 20260508102803 | 70 | 89 | 1.0 | 5.0 | 0.00 | 0.00 | 0.00 | 32 | 1012.8 |
| 20260508101803 | 70 | 102 | 3.0 | 4.0 | 0.00 | 0.00 | 0.00 | 32 | 1012.7 |
| 20260508101303 | 70 | 110 | 3.0 | 6.0 | 0.00 | 0.00 | 0.00 | 32 | 1012.6 |
| 20260508100302 | 70 | 118 | 3.0 | 5.0 | 0.00 | 0.00 | 0.00 | 31 | 1012.5 |
| 20260508095802 | 70 | 118 | 3.0 | 6.0 | 0.00 | 0.00 | 0.00 | 32 | 1012.6 |
| 20260508095306 | 70 | 123 | 2.0 | 6.0 | 0.00 | 0.00 | 0.00 | 31 | 1012.5 |
| 20260508094802 | 70 | 113 | 3.0 | 6.0 | 0.00 | 0.00 | 0.00 | 31 | 1012.6 |
| 20260508094302 | 70 | 99 | 2.0 | 7.0 | 0.00 | 0.00 | 0.00 | 31 | 1012.6 |
| 20260508093302 | 71 | 98 | 4.0 | 5.0 | 0.00 | 0.00 | 0.00 | 30 | 1012.6 |
| 20260508091801 | 71 | 105 | 2.0 | 5.0 | 0.00 | 0.00 | 0.00 | 29 | 1012.8 |
| 20260508090801 | 71 | 128 | 2.0 | 6.0 | 0.00 | 0.00 | 0.00 | 28 | 1012.9 |
| 20260508090301 | 71 | 103 | 4.0 | 7.0 | 0.00 | 0.00 | 0.00 | 27 | 1012.9 |
| 20260508085300 | 72 | 104 | 3.0 | 6.0 | 0.00 | 0.00 | 0.00 | 27 | 1013.1 |
| 20260508084800 | 72 | 106 | 5.0 | 6.0 | 0.00 | 0.00 | 0.00 | 26 | 1013.1 |
| 20260508084300 | 72 | 110 | 3.0 | 7.0 | 0.00 | 0.00 | 0.00 | 26 | 1013.2 |
| 20260508083800 | 72 | 115 | 2.0 | 7.0 | 0.00 | 0.00 | 0.00 | 27 | 1013.3 |
| 20260508083300 | 73 | 146 | 3.0 | 7.0 | 0.00 | 0.00 | 0.00 | 27 | 1013.3 |
| 20260508082800 | 73 | 105 | 2.0 | 6.0 | 0.00 | 0.00 | 0.00 | 28 | 1013.3 |
| 20260508082259 | 73 | 104 | 1.0 | 6.0 | 0.00 | 0.00 | 0.00 | 28 | 1013.3 |
| 20260508081800 | 73 | 134 | 4.0 | 6.0 | 0.00 | 0.00 | 0.00 | 27 | 1013.3 |
| 20260508081259 | 74 | 96 | 3.0 | 10.0 | 0.00 | 0.00 | 0.00 | 27 | 1013.4 |
| 20260508080759 | 73 | 101 | 2.0 | 10.0 | 0.00 | 0.00 | 0.00 | 26 | 1013.4 |
| 20260508080259 | 73 | 90 | 3.0 | 7.0 | 0.00 | 0.00 | 0.00 | 26 | 1013.4 |
| 20260508075759 | 73 | 142 | 3.0 | 7.0 | 0.00 | 0.00 | 0.00 | 25 | 1013.5 |
| 20260508075259 | 73 | 122 | 6.0 | 8.0 | 0.00 | 0.00 | 0.00 | 25 | 1013.5 |
| 20260508074258 | 74 | 129 | 2.0 | 11.0 | 0.00 | 0.00 | 0.00 | 23 | 1013.4 |
| 20260508073758 | 73 | 103 | 7.0 | 11.0 | 0.00 | 0.00 | 0.00 | 22 | 1013.4 |
| 20260508073258 | 73 | 110 | 6.0 | 8.0 | 0.00 | 0.00 | 0.00 | 22 | 1013.4 |
| 20260508072758 | 72 | 91 | 4.0 | 8.0 | 0.00 | 0.00 | 0.00 | 21 | 1013.4 |
| 20260508071758 | 72 | 116 | 3.0 | 7.0 | 0.00 | 0.00 | 0.00 | 22 | 1013.3 |
| 20260508071258 | 71 | 103 | 2.0 | 7.0 | 0.00 | 0.00 | 0.00 | 24 | 1013.1 |
| 20260508070758 | 70 | 105 | 3.0 | 5.0 | 0.00 | 0.00 | 0.00 | 28 | 1013.1 |
| 20260508070257 | 69 | 134 | 2.0 | 5.0 | 0.00 | 0.00 | 0.00 | 29 | 1013.0 |
| 20260508065757 | 70 | 82 | 0.0 | 1.0 | 0.00 | 0.00 | 0.00 | 29 | 1012.9 |
| 20260508065257 | 70 | 81 | 0.0 | 1.0 | 0.00 | 0.00 | 0.00 | 28 | 1012.9 |
| 20260508064757 | 71 | 82 | 0.0 | 1.0 | 0.00 | 0.00 | 0.00 | 27 | 1012.9 |
| 20260508064257 | 71 | 84 | 0.0 | 1.0 | 0.00 | 0.00 | 0.00 | 27 | 1012.9 |
| 20260508063756 | 71 | 86 | 0.0 | 1.0 | 0.00 | 0.00 | 0.00 | 27 | 1012.9 |
| 20260508063257 | 72 | 85 | 0.0 | 1.0 | 0.00 | 0.00 | 0.00 | 26 | 1013.1 |
| 20260508062757 | 72 | 88 | 0.0 | 1.0 | 0.00 | 0.00 | 0.00 | 25 | 1013.0 |
| 20260508062256 | 72 | 79 | 0.0 | 1.0 | 0.00 | 0.00 | 0.00 | 25 | 1012.9 |
| 20260508061756 | 72 | 86 | 0.0 | 1.0 | 0.00 | 0.00 | 0.00 | 25 | 1012.9 |
| 20260508060756 | 71 | 90 | 0.0 | 1.0 | 0.00 | 0.00 | 0.00 | 27 | 1012.7 |
| 20260508060255 | 71 | 103 | 0.0 | 1.0 | 0.00 | 0.00 | 0.00 | 28 | 1012.7 |
| 20260508055755 | 71 | 104 | 0.0 | 1.0 | 0.00 | 0.00 | 0.00 | 28 | 1012.8 |
| 20260508054755 | 71 | 80 | 0.0 | 1.0 | 0.00 | 0.00 | 0.00 | 28 | 1012.5 |
| 20260508053755 | 71 | 106 | 0.0 | 1.0 | 0.00 | 0.00 | 0.00 | 28 | 1012.5 |
| 20260508053254 | 71 | 106 | 0.0 | 1.0 | 0.00 | 0.00 | 0.00 | 28 | 1012.4 |
| 20260508052254 | 71 | 119 | 0.0 | 0.0 | 0.00 | 0.00 | 0.00 | 29 | 1012.4 |
| 20260508051754 | 72 | 119 | 0.0 | 1.0 | 0.00 | 0.00 | 0.00 | 29 | 1012.5 |
| 20260508050754 | 73 | 119 | 0.0 | 1.0 | 0.00 | 0.00 | 0.00 | 24 | 1012.4 |
| 20260508050254 | 73 | 119 | 0.0 | 1.0 | 0.00 | 0.00 | 0.00 | 25 | 1012.4 |
| 20260508045754 | 74 | 119 | 0.0 | 0.0 | 0.00 | 0.00 | 0.00 | 24 | 1012.7 |
| 20260508044754 | 75 | 119 | 0.0 | 0.0 | 0.00 | 0.00 | 0.00 | 23 | 1012.2 |
| 20260508044253 | 75 | 119 | 0.0 | 2.0 | 0.00 | 0.00 | 0.00 | 21 | 1012.1 |
| 20260508043253 | 74 | 111 | 2.0 | 2.0 | 0.00 | 0.00 | 0.00 | 22 | 1012.0 |
| 20260508042753 | 75 | 135 | 1.0 | 2.0 | 0.00 | 0.00 | 0.00 | 23 | 1012.1 |
| 20260508041252 | 77 | 37 | 0.0 | 1.0 | 0.00 | 0.00 | 0.00 | 19 | 1012.1 |
| 20260508040752 | 77 | 38 | 0.0 | 1.0 | 0.00 | 0.00 | 0.00 | 18 | 1011.9 |
| 20260508035752 | 76 | 21 | 0.0 | 1.0 | 0.00 | 0.00 | 0.00 | 20 | 1011.9 |
| 20260508035252 | 76 | 21 | 0.0 | 1.0 | 0.00 | 0.00 | 0.00 | 20 | 1011.4 |
| 20260508034752 | 75 | 16 | 0.0 | 1.0 | 0.00 | 0.00 | 0.00 | 19 | 1011.3 |
| 20260508034252 | 76 | 15 | 0.0 | 0.0 | 0.00 | 0.00 | 0.00 | 24 | 1011.3 |
| 20260508033752 | 77 | 15 | 0.0 | 0.0 | 0.00 | 0.00 | 0.00 | 21 | 1011.4 |
| 20260508033251 | 77 | 15 | 0.0 | 0.0 | 0.00 | 0.00 | 0.00 | 19 | 1011.3 |
| 20260508032751 | 78 | 15 | 0.0 | 1.0 | 0.00 | 0.00 | 0.00 | 20 | 1011.4 |
| 20260508032251 | 78 | 15 | 0.0 | 1.0 | 0.00 | 0.00 | 0.00 | 18 | 1011.0 |
| 20260508031251 | 78 | 271 | 0.0 | 1.0 | 0.00 | 0.00 | 0.00 | 17 | 1010.9 |
| 20260508030750 | 78 | 268 | 0.0 | 0.0 | 0.00 | 0.00 | 0.00 | 18 | 1010.8 |
| 20260508025750 | 80 | 269 | 0.0 | 0.0 | 0.00 | 0.00 | 0.00 | 16 | 1010.9 |
| 20260508025250 | 82 | 269 | 0.0 | 0.0 | 0.00 | 0.00 | 0.00 | 14 | 1010.6 |
| 20260508024250 | 83 | 268 | 0.0 | 1.0 | 0.00 | 0.00 | 0.00 | 12 | 1010.6 |
| 20260508023750 | 84 | 269 | 0.0 | 1.0 | 0.00 | 0.00 | 0.00 | 12 | 1010.5 |
| 20260508023250 | 85 | 271 | 0.0 | 4.0 | 0.00 | 0.00 | 0.00 | 11 | 1010.4 |
| 20260508022749 | 86 | 285 | 0.0 | 4.0 | 0.00 | 0.00 | 0.00 | 11 | 1010.4 |
| 20260508022249 | 86 | 272 | 0.0 | 3.0 | 0.00 | 0.00 | 0.00 | 10 | 1010.3 |
| 20260508021749 | 86 | 289 | 1.0 | 3.0 | 0.00 | 0.00 | 0.00 | 10 | 1010.3 |
| 20260508021249 | 87 | 290 | 0.0 | 6.0 | 0.00 | 0.00 | 0.00 | 10 | 1010.4 |
| 20260508020749 | 87 | 281 | 3.0 | 6.0 | 0.00 | 0.00 | 0.00 | 10 | 1010.3 |
| 20260508020249 | 88 | 268 | 1.0 | 8.0 | 0.00 | 0.00 | 0.00 | 10 | 1010.2 |
| 20260508015748 | 88 | 293 | 4.0 | 9.0 | 0.00 | 0.00 | 0.00 | 9 | 1010.2 |
| 20260508015249 | 89 | 313 | 3.0 | 9.0 | 0.00 | 0.00 | 0.00 | 9 | 1010.0 |
| 20260508014748 | 89 | 282 | 4.0 | 9.0 | 0.00 | 0.00 | 0.00 | 9 | 1009.9 |
| 20260508014248 | 90 | 278 | 0.0 | 9.0 | 0.00 | 0.00 | 0.00 | 9 | 1009.9 |
| 20260508013748 | 90 | 297 | 1.0 | 7.0 | 0.00 | 0.00 | 0.00 | 9 | 1009.9 |
| 20260508013248 | 90 | 304 | 2.0 | 7.0 | 0.00 | 0.00 | 0.00 | 9 | 1009.9 |
| 20260508012248 | 91 | 261 | 0.0 | 10.0 | 0.00 | 0.00 | 0.00 | 9 | 1010.0 |
| 20260508011747 | 91 | 291 | 7.0 | 9.0 | 0.00 | 0.00 | 0.00 | 8 | 1009.9 |
| 20260508011247 | 92 | 303 | 2.0 | 6.0 | 0.00 | 0.00 | 0.00 | 8 | 1010.1 |
| 20260508010747 | 92 | 294 | 0.0 | 6.0 | 0.00 | 0.00 | 0.00 | 7 | 1009.9 |
| 20260508010247 | 92 | 278 | 3.0 | 7.0 | 0.00 | 0.00 | 0.00 | 8 | 1010.1 |
| 20260508005817 | 92 | 247 | 2.0 | 9.0 | 0.00 | 0.00 | 0.00 | 8 | 1010.1 |
| 20260508005317 | 92 | 288 | 2.0 | 9.0 | 0.00 | 0.00 | 0.00 | 8 | 1009.5 |
| 20260508004817 | 93 | 290 | 8.0 | 8.0 | 0.00 | 0.00 | 0.00 | 8 | 1009.4 |
| 20260508004316 | 93 | 276 | 2.0 | 5.0 | 0.00 | 0.00 | 0.00 | 8 | 1009.3 |
| 20260508003816 | 93 | 238 | 0.0 | 7.0 | 0.00 | 0.00 | 0.00 | 8 | 1009.4 |
| 20260508003316 | 93 | 279 | 3.0 | 7.0 | 0.00 | 0.00 | 0.00 | 8 | 1009.4 |
| 20260508002816 | 93 | 204 | 1.0 | 6.0 | 0.00 | 0.00 | 0.00 | 8 | 1009.3 |
| 20260508001816 | 93 | 223 | 1.0 | 6.0 | 0.00 | 0.00 | 0.00 | 8 | 1009.3 |
| 20260508001316 | 93 | 281 | 0.0 | 8.0 | 0.00 | 0.00 | 0.00 | 8 | 1009.3 |
| 20260508000815 | 93 | 294 | 2.0 | 8.0 | 0.00 | 0.00 | 0.00 | 8 | 1009.5 |
| 20260508000246 | 94 | 224 | 0.0 | 8.0 | 0.00 | 0.00 | 0.00 | 8 | 1009.4 |
| 20260507235815 | 93 | 281 | 1.0 | 9.0 | 0.00 | 0.00 | 0.00 | 8 | 1009.4 |
| 20260507235315 | 93 | 304 | 2.0 | 9.0 | 0.00 | 0.00 | 0.00 | 8 | 1009.6 |
| 20260507234745 | 93 | 296 | 5.0 | 9.0 | 0.00 | 0.00 | 0.00 | 8 | 1009.6 |
| 20260507234245 | 93 | 243 | 3.0 | 10.0 | 0.00 | 0.00 | 0.00 | 9 | 1009.6 |
| 20260507233814 | 93 | 280 | 4.0 | 10.0 | 0.00 | 0.00 | 0.00 | 8 | 1009.6 |
| 20260507231814 | 93 | 227 | 0.0 | 8.0 | 0.00 | 0.00 | 0.00 | 9 | 1009.8 |
| 20260507231314 | 93 | 315 | 2.0 | 6.0 | 0.00 | 0.00 | 0.00 | 8 | 1009.8 |
| 20260507230813 | 93 | 228 | 2.0 | 10.0 | 0.00 | 0.00 | 0.00 | 9 | 1009.8 |
| 20260507230313 | 93 | 308 | 2.0 | 10.0 | 0.00 | 0.00 | 0.00 | 9 | 1009.9 |
| 20260507225813 | 93 | 282 | 5.0 | 9.0 | 0.00 | 0.00 | 0.00 | 9 | 1009.9 |
| 20260507225313 | 93 | 321 | 0.0 | 9.0 | 0.00 | 0.00 | 0.00 | 9 | 1010.0 |
| 20260507224813 | 94 | 285 | 2.0 | 8.0 | 0.00 | 0.00 | 0.00 | 9 | 1010.0 |
| 20260507224313 | 94 | 314 | 2.0 | 8.0 | 0.00 | 0.00 | 0.00 | 9 | 1010.1 |
| 20260507223813 | 94 | 289 | 4.0 | 8.0 | 0.00 | 0.00 | 0.00 | 9 | 1010.1 |
| 20260507222813 | 93 | 9 | 4.0 | 7.0 | 0.00 | 0.00 | 0.00 | 9 | 1010.2 |
| 20260507222312 | 93 | 216 | 2.0 | 8.0 | 0.00 | 0.00 | 0.00 | 9 | 1010.3 |
| 20260507221812 | 93 | 240 | 4.0 | 8.0 | 0.00 | 0.00 | 0.00 | 9 | 1010.5 |
| 20260507221312 | 93 | 198 | 1.0 | 8.0 | 0.00 | 0.00 | 0.00 | 10 | 1010.5 |
| 20260507220812 | 93 | 140 | 1.0 | 10.0 | 0.00 | 0.00 | 0.00 | 10 | 1010.5 |
| 20260507215812 | 92 | 283 | 6.0 | 11.0 | 0.00 | 0.00 | 0.00 | 9 | 1010.7 |
| 20260507215311 | 93 | 330 | 6.0 | 10.0 | 0.00 | 0.00 | 0.00 | 9 | 1010.9 |
| 20260507214811 | 92 | 244 | 8.0 | 9.0 | 0.00 | 0.00 | 0.00 | 9 | 1010.9 |
| 20260507214311 | 93 | 297 | 4.0 | 9.0 | 0.00 | 0.00 | 0.00 | 9 | 1011.0 |
| 20260507213811 | 93 | 304 | 3.0 | 8.0 | 0.00 | 0.00 | 0.00 | 9 | 1011.2 |
| 20260507213311 | 93 | 294 | 2.0 | 8.0 | 0.00 | 0.00 | 0.00 | 8 | 1011.2 |
| 20260507212811 | 92 | 205 | 2.0 | 5.0 | 0.00 | 0.00 | 0.00 | 8 | 1011.2 |
| 20260507212310 | 92 | 240 | 2.0 | 5.0 | 0.00 | 0.00 | 0.00 | 8 | 1011.3 |
| 20260507211810 | 92 | 285 | 1.0 | 8.0 | 0.00 | 0.00 | 0.00 | 8 | 1011.4 |
| 20260507210310 | 93 | 258 | 1.0 | 8.0 | 0.00 | 0.00 | 0.00 | 8 | 1011.9 |
| 20260507205810 | 92 | 317 | 3.0 | 7.0 | 0.00 | 0.00 | 0.00 | 8 | 1011.8 |
| 20260507205309 | 93 | 297 | 4.0 | 7.0 | 0.00 | 0.00 | 0.00 | 8 | 1011.5 |
| 20260507204810 | 93 | 354 | 2.0 | 7.0 | 0.00 | 0.00 | 0.00 | 8 | 1011.6 |
| 20260507204309 | 92 | 318 | 2.0 | 4.0 | 0.00 | 0.00 | 0.00 | 9 | 1011.6 |
| 20260507203809 | 92 | 213 | 2.0 | 8.0 | 0.00 | 0.00 | 0.00 | 9 | 1011.8 |
| 20260507203309 | 91 | 290 | 0.0 | 8.0 | 0.00 | 0.00 | 0.00 | 9 | 1011.8 |
| 20260507202809 | 92 | 278 | 3.0 | 6.0 | 0.00 | 0.00 | 0.00 | 9 | 1012.0 |
| 20260507202309 | 91 | 290 | 1.0 | 9.0 | 0.00 | 0.00 | 0.00 | 10 | 1012.0 |
| 20260507201809 | 92 | 321 | 2.0 | 9.0 | 0.00 | 0.00 | 0.00 | 10 | 1012.0 |
| 20260507200808 | 92 | 330 | 2.0 | 7.0 | 0.00 | 0.00 | 0.00 | 10 | 1012.2 |
| 20260507200308 | 91 | 319 | 1.0 | 7.0 | 0.00 | 0.00 | 0.00 | 9 | 1012.2 |
| 20260507195808 | 91 | 270 | 2.0 | 4.0 | 0.00 | 0.00 | 0.00 | 10 | 1012.3 |
| 20260507194808 | 92 | 114 | 2.0 | 10.0 | 0.00 | 0.00 | 0.00 | 10 | 1012.8 |
| 20260507194308 | 93 | 217 | 2.0 | 10.0 | 0.00 | 0.00 | 0.00 | 10 | 1012.7 |
| 20260507193807 | 92 | 221 | 3.0 | 7.0 | 0.00 | 0.00 | 0.00 | 10 | 1012.9 |
| 20260507193308 | 92 | 239 | 3.0 | 6.0 | 0.00 | 0.00 | 0.00 | 10 | 1012.9 |
| 20260507192807 | 91 | 293 | 3.0 | 6.0 | 0.00 | 0.00 | 0.00 | 11 | 1012.9 |
| 20260507192307 | 91 | 281 | 3.0 | 6.0 | 0.00 | 0.00 | 0.00 | 10 | 1013.1 |
| 20260507191807 | 91 | 158 | 1.0 | 5.0 | 0.00 | 0.00 | 0.00 | 11 | 1013.1 |
| 20260507191307 | 90 | 90 | 2.0 | 5.0 | 0.00 | 0.00 | 0.00 | 11 | 1013.2 |
| 20260507190807 | 91 | 124 | 4.0 | 8.0 | 0.00 | 0.00 | 0.00 | 11 | 1013.3 |
| 20260507190307 | 90 | 130 | 2.0 | 8.0 | 0.00 | 0.00 | 0.00 | 11 | 1013.3 |
| 20260507181805 | 87 | 226 | 4.0 | 7.0 | 0.00 | 0.00 | 0.00 | 14 | 1014.0 |
| 20260507181305 | 87 | 143 | 3.0 | 7.0 | 0.00 | 0.00 | 0.00 | 15 | 1014.0 |
| 20260507180805 | 87 | 115 | 7.0 | 7.0 | 0.00 | 0.00 | 0.00 | 14 | 1014.1 |
| 20260507180305 | 87 | 231 | 1.0 | 6.0 | 0.00 | 0.00 | 0.00 | 15 | 1014.1 |
| 20260507175804 | 86 | 276 | 3.0 | 6.0 | 0.00 | 0.00 | 0.00 | 15 | 1014.2 |
| 20260507175307 | 86 | 210 | 4.0 | 5.0 | 0.00 | 0.00 | 0.00 | 15 | 1014.3 |
| 20260507174805 | 86 | 199 | 1.0 | 7.0 | 0.00 | 0.00 | 0.00 | 16 | 1014.3 |
| 20260507174304 | 86 | 134 | 5.0 | 7.0 | 0.00 | 0.00 | 0.00 | 16 | 1014.6 |
| 20260507173804 | 85 | 201 | 1.0 | 5.0 | 0.00 | 0.00 | 0.00 | 17 | 1014.5 |
| 20260507173304 | 84 | 145 | 3.0 | 5.0 | 0.00 | 0.00 | 0.00 | 17 | 1014.5 |
| 20260507172804 | 83 | 287 | 2.0 | 5.0 | 0.00 | 0.00 | 0.00 | 17 | 1014.4 |
| 20260507172307 | 84 | 259 | 4.0 | 5.0 | 0.00 | 0.00 | 0.00 | 17 | 1014.6 |
| 20260507171804 | 84 | 295 | 1.0 | 5.0 | 0.00 | 0.00 | 0.00 | 18 | 1014.6 |
| 20260507171304 | 83 | 240 | 1.0 | 5.0 | 0.00 | 0.00 | 0.00 | 19 | 1014.5 |
| 20260507170803 | 83 | 263 | 2.0 | 4.0 | 0.00 | 0.00 | 0.00 | 18 | 1014.6 |
| 20260507170303 | 82 | 260 | 0.0 | 5.0 | 0.00 | 0.00 | 0.00 | 20 | 1014.8 |
| 20260507165803 | 82 | 314 | 2.0 | 5.0 | 0.00 | 0.00 | 0.00 | 19 | 1014.7 |
| 20260507164803 | 81 | 217 | 2.0 | 7.0 | 0.00 | 0.00 | 0.00 | 20 | 1014.7 |
| 20260507164302 | 81 | 223 | 7.0 | 7.0 | 0.00 | 0.00 | 0.00 | 21 | 1014.7 |
| 20260507163802 | 80 | 263 | 4.0 | 5.0 | 0.00 | 0.00 | 0.00 | 21 | 1014.7 |
| 20260507163302 | 80 | 294 | 3.0 | 5.0 | 0.00 | 0.00 | 0.00 | 21 | 1014.6 |
| 20260507162302 | 80 | 228 | 2.0 | 4.0 | 0.00 | 0.00 | 0.00 | 22 | 1014.7 |
| 20260507161801 | 80 | 293 | 2.0 | 3.0 | 0.00 | 0.00 | 0.00 | 22 | 1014.7 |
| 20260507161302 | 80 | 235 | 0.0 | 3.0 | 0.00 | 0.00 | 0.00 | 22 | 1014.8 |
| 20260507160801 | 79 | 214 | 2.0 | 3.0 | 0.00 | 0.00 | 0.00 | 23 | 1014.7 |
| 20260507160301 | 79 | 244 | 0.0 | 3.0 | 0.00 | 0.00 | 0.00 | 23 | 1014.9 |
| 20260507155301 | 78 | 202 | 0.0 | 4.0 | 0.00 | 0.00 | 0.00 | 24 | 1014.9 |
| 20260507154801 | 78 | 184 | 0.0 | 4.0 | 0.00 | 0.00 | 0.00 | 25 | 1014.9 |
| 20260507154301 | 77 | 169 | 1.0 | 4.0 | 0.00 | 0.00 | 0.00 | 25 | 1014.9 |
| 20260507153800 | 76 | 129 | 1.0 | 3.0 | 0.00 | 0.00 | 0.00 | 25 | 1014.8 |
| 20260507153301 | 76 | 134 | 2.0 | 3.0 | 0.00 | 0.00 | 0.00 | 25 | 1014.8 |
| 20260507152801 | 76 | 122 | 1.0 | 3.0 | 0.00 | 0.00 | 0.00 | 26 | 1014.9 |
| 20260507152300 | 75 | 149 | 1.0 | 4.0 | 0.00 | 0.00 | 0.00 | 27 | 1014.8 |
| 20260507151300 | 75 | 248 | 2.0 | 3.0 | 0.00 | 0.00 | 0.00 | 28 | 1014.9 |
| 20260507150800 | 74 | 138 | 1.0 | 3.0 | 0.00 | 0.00 | 0.00 | 29 | 1014.7 |
| 20260507150300 | 74 | 153 | 1.0 | 3.0 | 0.00 | 0.00 | 0.00 | 29 | 1014.8 |
| 20260507145759 | 73 | 164 | 2.0 | 3.0 | 0.00 | 0.00 | 0.00 | 30 | 1014.9 |
| 20260507144759 | 72 | 146 | 0.0 | 4.0 | 0.00 | 0.00 | 0.00 | 31 | 1014.8 |
| 20260507144259 | 72 | 97 | 0.0 | 4.0 | 0.00 | 0.00 | 0.00 | 31 | 1014.9 |
| 20260507143759 | 72 | 111 | 1.0 | 4.0 | 0.00 | 0.00 | 0.00 | 31 | 1014.8 |
| 20260507143259 | 72 | 164 | 0.0 | 3.0 | 0.00 | 0.00 | 0.00 | 30 | 1014.8 |
| 20260507142759 | 72 | 146 | 0.0 | 2.0 | 0.00 | 0.00 | 0.00 | 32 | 1014.9 |
| 20260507142258 | 71 | 100 | 0.0 | 2.0 | 0.00 | 0.00 | 0.00 | 33 | 1014.9 |
| 20260507141758 | 71 | 100 | 0.0 | 2.0 | 0.00 | 0.00 | 0.00 | 32 | 1014.8 |
| 20260507141258 | 71 | 108 | 1.0 | 2.0 | 0.00 | 0.00 | 0.00 | 31 | 1014.9 |
| 20260507140258 | 70 | 103 | 0.0 | 1.0 | 0.00 | 0.00 | 0.00 | 32 | 1014.7 |
| 20260507135758 | 70 | 129 | 0.0 | 1.0 | 0.00 | 0.00 | 0.00 | 31 | 1014.6 |
| 20260507135258 | 69 | 213 | 1.0 | 1.0 | 0.00 | 0.00 | 0.00 | 32 | 1015.0 |
| 20260507134757 | 69 | 141 | 0.0 | 1.0 | 0.00 | 0.00 | 0.00 | 34 | 1015.0 |
| 20260507134257 | 68 | 100 | 0.0 | 1.0 | 0.00 | 0.00 | 0.00 | 35 | 1014.8 |
| 20260507133757 | 67 | 61 | 0.0 | 1.0 | 0.00 | 0.00 | 0.00 | 36 | 1014.7 |
| 20260507133257 | 65 | 60 | 1.0 | 1.0 | 0.00 | 0.00 | 0.00 | 40 | 1014.6 |
| 20260507132757 | 64 | 61 | 0.0 | 2.0 | 0.00 | 0.00 | 0.00 | 41 | 1014.4 |
| 20260507132256 | 62 | 71 | 0.0 | 3.0 | 0.00 | 0.00 | 0.00 | 44 | 1014.2 |
| 20260507131757 | 61 | 33 | 1.0 | 3.0 | 0.00 | 0.00 | 0.00 | 46 | 1014.2 |
| 20260507130756 | 60 | 53 | 0.0 | 1.0 | 0.00 | 0.00 | 0.00 | 49 | 1014.0 |
| 20260507130256 | 60 | 53 | 0.0 | 0.0 | 0.00 | 0.00 | 0.00 | 47 | 1014.1 |
| 20260507125756 | 60 | 53 | 0.0 | 2.0 | 0.00 | 0.00 | 0.00 | 47 | 1014.1 |
| 20260507125256 | 60 | 54 | 0.0 | 2.0 | 0.00 | 0.00 | 0.00 | 46 | 1014.2 |
| 20260507124756 | 60 | 33 | 1.0 | 1.0 | 0.00 | 0.00 | 0.00 | 48 | 1014.3 |
| 20260507124255 | 61 | 5 | 0.0 | 1.0 | 0.00 | 0.00 | 0.00 | 45 | 1014.2 |
| 20260507123755 | 61 | 5 | 0.0 | 1.0 | 0.00 | 0.00 | 0.00 | 45 | 1014.2 |
| 20260507122755 | 61 | 104 | 1.0 | 1.0 | 0.00 | 0.00 | 0.00 | 45 | 1014.1 |
| 20260507122255 | 61 | 105 | 0.0 | 1.0 | 0.00 | 0.00 | 0.00 | 45 | 1014.1 |
| 20260507121755 | 61 | 96 | 0.0 | 1.0 | 0.00 | 0.00 | 0.00 | 47 | 1014.1 |
| 20260507121254 | 62 | 93 | 0.0 | 1.0 | 0.00 | 0.00 | 0.00 | 43 | 1014.2 |
| 20260507120754 | 62 | 93 | 0.0 | 1.0 | 0.00 | 0.00 | 0.00 | 44 | 1014.2 |
| 20260507120254 | 63 | 170 | 0.0 | 1.0 | 0.00 | 0.00 | 0.00 | 43 | 1014.1 |
| 20260507115754 | 62 | 32 | 0.0 | 2.0 | 0.00 | 0.00 | 0.00 | 41 | 1014.2 |
| 20260507115254 | 61 | 111 | 1.0 | 2.0 | 0.00 | 0.00 | 0.00 | 45 | 1014.1 |
| 20260507114254 | 61 | 70 | 0.0 | 1.0 | 0.00 | 0.00 | 0.00 | 44 | 1014.0 |
| 20260507113753 | 62 | 82 | 0.0 | 2.0 | 0.00 | 0.00 | 0.00 | 45 | 1014.1 |
| 20260507113253 | 62 | 82 | 0.0 | 2.0 | 0.00 | 0.00 | 0.00 | 43 | 1014.3 |
| 20260507112753 | 62 | 81 | 1.0 | 2.0 | 0.00 | 0.00 | 0.00 | 43 | 1014.2 |
| 20260507112253 | 62 | 91 | 0.0 | 2.0 | 0.00 | 0.00 | 0.00 | 44 | 1014.3 |
| 20260507111753 | 62 | 73 | 0.0 | 3.0 | 0.00 | 0.00 | 0.00 | 43 | 1014.3 |
| 20260507111253 | 62 | 205 | 0.0 | 5.0 | 0.00 | 0.00 | 0.00 | 42 | 1014.2 |
| 20260507110753 | 62 | 132 | 1.0 | 5.0 | 0.00 | 0.00 | 0.00 | 43 | 1014.2 |
| 20260507110252 | 63 | 297 | 0.0 | 1.0 | 0.00 | 0.00 | 0.00 | 40 | 1014.1 |
| 20260507105253 | 63 | 293 | 0.0 | 2.0 | 0.00 | 0.00 | 0.00 | 41 | 1014.3 |
| 20260507104752 | 63 | 316 | 0.0 | 1.0 | 0.00 | 0.00 | 0.00 | 40 | 1014.2 |
| 20260507104252 | 63 | 65 | 0.0 | 0.0 | 0.00 | 0.00 | 0.00 | 44 | 1014.2 |
| 20260507103752 | 63 | 39 | 0.0 | 1.0 | 0.00 | 0.00 | 0.00 | 40 | 1014.2 |
| 20260507103252 | 63 | 39 | 0.0 | 1.0 | 0.00 | 0.00 | 0.00 | 45 | 1014.2 |